TimeCST,TemperatureF,Dew PointF,Humidity,Sea Level PressureIn,VisibilityMPH,Wind Direction,Wind SpeedMPH,Gust SpeedMPH,PrecipitationIn,Events,Conditions,WindDirDegrees,DateUTC
12:05 AM,44.6,42.8,93,29.86,1.5,East,3.5,-,0.00,Rain,Light Rain,100,2012-12-28 06:05:00
12:51 AM,44.1,42.1,93,29.83,1.0,East,3.5,-,0.00,,Overcast,100,2012-12-28 06:51:00
1:22 AM,44.6,42.8,93,29.83,0.8,Calm,Calm,-,0.00,Rain,Light Rain,0,2012-12-28 07:22:00
1:47 AM,44.6,42.8,93,29.84,1.0,North,4.6,-,0.01,Rain,Light Rain,360,2012-12-28 07:47:00
1:51 AM,44.1,42.1,93,29.85,1.0,North,4.6,-,0.01,,Overcast,360,2012-12-28 07:51:00
2:12 AM,44.6,42.8,93,29.86,0.8,NNW,6.9,-,0.00,Rain,Light Rain,340,2012-12-28 08:12:00
2:23 AM,44.6,42.8,93,29.86,1.0,NNW,6.9,-,0.01,Rain,Light Rain,340,2012-12-28 08:23:00
2:51 AM,44.1,42.1,93,29.88,1.5,NNW,8.1,-,0.02,Rain,Light Rain,340,2012-12-28 08:51:00
3:48 AM,44.6,42.8,93,29.87,1.8,North,8.1,-,0.02,,Overcast,360,2012-12-28 09:48:00
3:51 AM,44.1,42.1,93,29.87,1.8,North,9.2,-,0.02,,Overcast,360,2012-12-28 09:51:00
4:05 AM,44.6,42.8,93,29.87,2.5,North,10.4,-,N/A,,Overcast,10,2012-12-28 10:05:00
4:51 AM,43.0,42.1,97,29.87,2.5,North,8.1,-,0.01,Rain,Light Rain,360,2012-12-28 10:51:00
5:28 AM,42.8,42.8,100,29.86,3.0,North,8.1,-,0.00,,Overcast,10,2012-12-28 11:28:00
5:35 AM,42.8,42.8,100,29.87,2.5,North,8.1,-,0.00,,Overcast,360,2012-12-28 11:35:00
5:46 AM,42.8,42.8,100,29.87,3.0,North,6.9,-,0.00,,Overcast,10,2012-12-28 11:46:00
5:51 AM,43.0,42.1,97,29.87,3.0,North,5.8,-,0.00,,Overcast,350,2012-12-28 11:51:00
6:01 AM,42.8,42.8,100,29.87,4.0,North,5.8,-,N/A,,Overcast,360,2012-12-28 12:01:00
6:51 AM,42.8,42.8,100,29.88,5.0,NNW,5.8,-,N/A,,Overcast,340,2012-12-28 12:51:00
7:51 AM,43.0,42.1,97,29.93,3.0,NNW,6.9,-,N/A,,Overcast,330,2012-12-28 13:51:00
8:20 AM,44.6,42.8,93,29.94,2.0,NNW,6.9,-,N/A,,Overcast,330,2012-12-28 14:20:00
8:28 AM,44.6,42.8,93,29.94,1.2,North,6.9,-,N/A,,Overcast,350,2012-12-28 14:28:00
8:51 AM,44.1,42.1,93,29.95,1.5,North,6.9,-,N/A,,Overcast,360,2012-12-28 14:51:00
9:51 AM,45.0,43.0,93,29.97,2.0,North,6.9,-,N/A,,Overcast,350,2012-12-28 15:51:00
10:47 AM,48.2,42.8,82,29.95,5.0,North,6.9,-,N/A,,Haze,360,2012-12-28 16:47:00
10:51 AM,48.0,43.0,83,29.95,5.0,North,6.9,-,N/A,,Haze,360,2012-12-28 16:51:00
11:51 AM,46.0,42.1,86,29.98,6.0,NNW,13.8,-,N/A,,Overcast,330,2012-12-28 17:51:00
12:01 PM,46.4,42.8,87,29.98,7.0,NNW,17.3,24.2,N/A,,Overcast,340,2012-12-28 18:01:00
12:51 PM,45.0,39.9,82,29.98,6.0,NNW,18.4,25.3,N/A,,Haze,330,2012-12-28 18:51:00
1:51 PM,43.0,37.9,82,29.99,3.0,NNW,20.7,25.3,N/A,,Haze,330,2012-12-28 19:51:00
2:51 PM,42.1,37.0,82,30.01,5.0,NNW,13.8,24.2,N/A,,Haze,330,2012-12-28 20:51:00
3:51 PM,39.9,34.0,79,30.04,5.0,NW,12.7,-,N/A,,Haze,320,2012-12-28 21:51:00
4:06 PM,39.2,33.8,81,30.04,5.0,NW,13.8,-,N/A,,Haze,310,2012-12-28 22:06:00
4:51 PM,39.9,32.0,73,30.06,6.0,NNW,15.0,23.0,N/A,,Haze,330,2012-12-28 22:51:00
4:58 PM,39.2,32.0,75,30.07,6.0,NW,13.8,-,N/A,,Haze,320,2012-12-28 22:58:00
5:08 PM,39.2,32.0,75,30.07,5.0,NW,17.3,25.3,N/A,,Haze,320,2012-12-28 23:08:00
5:51 PM,37.9,30.9,76,30.10,6.0,NW,13.8,-,N/A,,Haze,320,2012-12-28 23:51:00
7:51 PM,35.1,27.0,72,30.17,7.0,NW,8.1,-,N/A,,Clear,310,2012-12-29 01:51:00
8:51 PM,30.2,24.8,80,30.20,6.0,West,5.8,-,N/A,,Haze,280,2012-12-29 02:51:00
9:51 PM,32.0,26.1,79,30.22,6.0,NW,8.1,-,N/A,,Haze,310,2012-12-29 03:51:00
10:51 PM,30.9,26.1,82,30.24,6.0,NW,8.1,-,N/A,,Haze,320,2012-12-29 04:51:00
11:51 PM,30.0,25.0,82,30.25,7.0,NNW,8.1,-,N/A,,Clear,340,2012-12-29 05:51:00